Location: Cerbedi�res
(48.2182°N, 1.4849°W)
Time: 08:25:03
(UTC+00:00)

ERBS - Pass Details

Date: 03 March 2021
Orbit: 408 x 413 km, 57.0° (Epoch: 11 April)

Event Time Altitude Azimuth Distance (km) Brightness Sun altitude
Rises 18:55:50 0° 252° (WSW) 2,346 7.5 -11.2°
Reaches altitude 10° 18:57:59 10° 260° (W) 1,486 6.4 -11.5°
Maximum altitude 19:01:09 40° 332° (NNW) 623 3.4 -12.1°
Enters shadow 19:04:09 11° 43° (NE) 1,425 4.6 -12.6°
